DateTimeUTC,F1_A11,F1_S11,BsB_S11,BsG_S11,BsR_S11,BbsB_S11,BbsG_S11,BbsR_S11,BaB_A11,BaG_A11,BaR_A11,Tu_S11,T_S11,Uu_S11,U_S11,P_S11,T1_A11
2021-03-31T21:00:00Z,00000200,21000000,,,,,,,-000.31,-000.30,-000.19,16.6,24.0,,00.0,0655.7,30.9
2021-03-31T21:01:00Z,00000200,21000000,,,,,,,-000.34,-000.29,-000.16,16.6,24.1,,00.0,0655.7,30.9
2021-03-31T21:02:00Z,00000200,21000000,,,,,,,0000.06,-000.43,-000.22,16.6,24.1,,00.0,0655.8,30.9
2021-03-31T21:03:00Z,00000200,61000000,,,,,,,-000.39,0000.55,0000.22,16.6,24.1,,00.0,0655.8,30.9
2021-03-31T21:04:00Z,00000200,41000000,0003.07,0001.79,0001.22,0000.62,0000.27,0000.39,0000.48,-000.43,0000.12,16.7,23.9,,00.0,0656.8,30.9
2021-03-31T21:05:00Z,00000200,01000000,0003.02,0001.51,0001.41,0000.52,0000.19,0000.42,0000.26,0000.76,0000.55,16.7,23.8,,00.0,0656.9,30.9
2021-03-31T21:06:00Z,00000200,01000000,0003.19,0001.75,0000.98,0000.46,0000.21,0000.22,0000.47,0000.46,0000.09,16.6,23.8,,00.0,0657.0,30.9
2021-03-31T21:07:00Z,00000200,01000000,0002.66,0001.84,0001.15,0000.21,0000.32,0000.18,0000.51,0000.46,0000.21,16.6,23.8,,00.0,0657.0,30.9
2021-03-31T21:08:00Z,00000200,01000000,0002.86,0001.82,0000.93,0000.20,0000.21,0000.20,0000.63,0000.43,0000.37,16.6,23.7,,00.0,0657.0,30.9
2021-03-31T21:09:00Z,00000200,01000000,0002.28,0001.88,0001.16,0000.08,0000.29,0000.34,0000.51,0000.03,0000.67,16.6,23.7,,00.0,0657.1,30.9
2021-03-31T21:10:00Z,00000200,01000000,0002.84,0001.81,0001.03,0000.45,0000.04,0000.03,0000.44,0000.89,0000.05,16.6,23.7,,00.0,0657.1,30.9
2021-03-31T21:11:00Z,00000200,01000000,0003.64,0001.71,0001.15,0000.17,0000.21,0000.23,0000.53,0000.72,0000.58,16.6,23.7,,00.0,0657.1,30.9
2021-03-31T21:12:00Z,00000200,01000000,0003.19,0001.69,0001.02,0000.43,0000.29,0000.28,0000.66,0000.43,0000.62,16.7,23.7,,00.0,0657.1,30.9
2021-03-31T21:13:00Z,00000200,01000000,0003.06,0001.69,0001.06,0001.09,0000.18,0000.20,0000.76,0000.45,0000.40,16.7,23.7,,00.0,0657.1,30.9
2021-03-31T21:14:00Z,00000200,01000000,0003.02,0001.54,0001.24,0000.13,0000.25,0000.29,0000.31,0000.57,0000.20,16.8,23.7,,00.0,0657.2,30.9
2021-03-31T21:15:00Z,00000200,01000000,0002.58,0002.34,0001.18,0000.61,0000.28,0000.35,0000.84,0000.60,0000.35,16.7,23.7,,00.0,0657.2,30.9
2021-03-31T21:16:00Z,00000200,01000000,0002.50,0001.95,0001.21,0000.39,0000.37,0000.27,0000.40,0000.18,0000.37,16.7,23.8,,00.0,0657.2,30.9
2021-03-31T21:17:00Z,00000200,01000000,0003.06,0001.87,0001.32,0000.29,0000.32,0000.39,0000.26,0000.54,0000.44,16.7,23.7,,00.0,0657.2,30.9
2021-03-31T21:18:00Z,00000200,01000000,0003.18,0001.85,0000.98,0001.12,0000.11,0000.35,0000.72,0000.57,0000.36,16.7,23.7,,00.0,0657.3,30.9
2021-03-31T21:19:00Z,00000200,01000000,0003.38,0001.91,0001.18,0000.08,0000.17,0000.17,0000.34,0000.84,0000.42,16.6,23.7,,00.0,0657.3,30.9
2021-03-31T21:20:00Z,00000200,01000000,0003.01,0002.09,0001.08,0000.18,0000.15,0000.18,0000.37,0000.23,0000.20,16.6,23.7,,00.0,0657.3,30.9
2021-03-31T21:21:00Z,00000200,01000000,0003.00,0001.60,0001.26,0000.76,0000.18,0000.14,0000.64,0000.18,0000.51,16.6,23.7,,00.0,0657.4,30.9
2021-03-31T21:22:00Z,00000200,01000000,0003.03,0001.61,0001.26,0000.74,0000.16,0000.42,0000.45,0000.53,0000.28,16.6,23.7,,00.0,0657.4,30.9
2021-03-31T21:23:00Z,00000200,01000000,0002.67,0001.80,0001.22,0000.59,0000.19,0000.35,0000.16,0000.31,0000.35,16.6,23.6,,00.0,0657.4,30.9
2021-03-31T21:24:00Z,00000200,01000000,0002.99,0001.85,0001.21,0000.44,0000.12,0000.21,0000.81,0000.41,0000.30,16.5,23.6,,00.0,0657.4,30.9
2021-03-31T21:25:00Z,00000200,01000000,0002.54,0001.81,0001.15,0000.92,0000.03,0000.29,0000.40,0000.43,0000.19,16.5,23.6,,00.0,0657.4,30.9
2021-03-31T21:26:00Z,00000200,01000000,0002.66,0001.59,0001.04,0000.48,0000.13,0000.10,0000.42,0000.29,0000.27,16.6,23.6,,00.0,0657.4,30.9
2021-03-31T21:27:00Z,00000200,01000000,0002.97,0001.87,0001.01,-000.06,-000.04,0000.19,0000.66,0000.63,0000.59,16.7,23.6,,00.0,0657.4,30.9
2021-03-31T21:28:00Z,00000200,01000000,0003.03,0001.84,0001.32,0000.62,0000.24,0000.14,0000.24,0000.47,0000.05,16.7,23.7,,00.0,0657.4,30.9
2021-03-31T21:29:00Z,00000200,01000000,0003.09,0002.16,0001.24,0001.01,0000.32,0000.39,0000.46,0000.26,0000.59,16.7,23.7,,00.0,0657.4,31.0
2021-03-31T21:30:00Z,00000200,01000000,0003.17,0001.93,0001.41,0000.18,0000.32,0000.22,0000.87,0001.17,0000.61,16.8,23.7,,00.0,0657.3,30.9
2021-03-31T21:31:00Z,00000200,01000000,0002.86,0002.06,0000.99,0000.62,0000.20,0000.37,0001.50,0000.99,0000.80,16.8,23.7,,00.0,0657.3,30.9
2021-03-31T21:32:00Z,00000200,01000000,0002.87,0002.01,0001.07,0000.65,0000.35,0000.17,0000.84,0000.65,0000.82,16.7,23.7,,00.0,0657.2,30.9
2021-03-31T21:33:00Z,00000200,01000000,0002.86,0002.03,0001.33,0000.84,0000.03,0000.44,0000.92,0001.09,0000.83,16.7,23.7,,00.0,0657.2,30.9
2021-03-31T21:34:00Z,00000200,01000000,0003.13,0002.03,0001.07,0000.98,0000.20,0000.16,0000.90,0000.67,0000.13,16.7,23.7,,00.0,0657.2,30.9
2021-03-31T21:35:00Z,00000200,01000000,0003.34,0001.86,0001.15,0000.49,0000.16,0000.18,0000.22,0000.16,0000.40,16.6,23.6,,00.0,0657.2,30.9
2021-03-31T21:36:00Z,00000200,01000000,0002.97,0001.93,0001.05,0000.49,0000.29,0000.14,0000.51,0000.90,0000.45,16.6,23.6,,00.0,0657.2,30.9
2021-03-31T21:37:00Z,00000200,01000000,0002.99,0001.87,0001.32,0000.74,0000.09,0000.17,0000.50,0000.37,0000.25,16.6,23.6,,00.0,0657.2,30.9
2021-03-31T21:38:00Z,00000200,01000000,0003.14,0001.55,0000.96,0000.62,0000.26,0000.38,0001.03,0000.70,0000.64,16.5,23.6,,00.0,0657.2,30.9
2021-03-31T21:39:00Z,00000200,01000000,0003.80,0001.83,0001.08,0000.90,0000.22,0000.39,0000.26,0000.28,0000.29,16.5,23.6,,00.0,0657.3,30.9
2021-03-31T21:40:00Z,00000200,01000000,0003.05,0001.91,0001.15,0001.22,0000.28,0000.21,0000.88,0000.36,0000.32,16.5,23.6,,00.0,0657.3,30.9
2021-03-31T21:41:00Z,00000200,01000000,0003.21,0002.15,0001.38,0000.68,0000.40,0000.37,0000.18,0000.32,0000.43,16.6,23.6,,00.0,0657.3,30.9
2021-03-31T21:42:00Z,00000200,01000000,0003.37,0001.50,0001.31,0000.33,0000.22,0000.23,0000.23,0000.27,0000.62,16.7,23.6,,00.0,0657.3,30.9
2021-03-31T21:43:00Z,00000200,01000000,0003.15,0001.85,0001.44,0000.87,0000.18,0000.12,0000.54,0000.81,0000.47,16.7,23.6,,00.0,0657.3,30.9
2021-03-31T21:44:00Z,00000200,01000000,0003.33,0001.86,0001.15,0000.56,0000.17,0000.19,0000.70,0000.41,-000.09,16.8,23.7,,00.0,0657.4,30.9
2021-03-31T21:45:00Z,00000200,01000000,0002.86,0001.80,0001.03,0000.90,0000.09,0000.26,0000.42,0000.14,0000.61,16.8,23.7,,00.0,0657.4,30.9
2021-03-31T21:46:00Z,00000200,01000000,0002.44,0001.82,0001.17,0000.53,0000.33,0000.19,0000.69,0000.69,0000.19,16.8,23.7,,00.0,0657.4,30.9
2021-03-31T21:47:00Z,00000200,01000000,0003.05,0002.22,0001.04,0000.45,0000.29,0000.38,-000.11,0000.71,0000.16,16.8,23.7,,00.0,0657.4,30.9
2021-03-31T21:48:00Z,00000200,01000000,0002.67,0001.86,0001.43,0000.43,0000.38,0000.27,0001.16,0000.12,0000.60,16.7,23.7,,00.0,0657.4,30.9
2021-03-31T21:49:00Z,00000200,01000000,0003.36,0002.19,0001.00,0000.70,0000.46,0000.14,0000.15,0000.57,0000.12,16.7,23.7,,00.0,0657.5,30.9
2021-03-31T21:50:00Z,00000200,01000000,0002.76,0002.05,0001.59,0000.92,0000.05,0000.26,0000.31,0000.73,0000.37,16.7,23.7,,00.0,0657.5,30.9
2021-03-31T21:51:00Z,00000200,01000000,0002.62,0002.07,0001.00,0000.34,0000.29,0000.34,0000.65,0000.16,0000.55,16.7,23.6,,00.0,0657.5,30.9
2021-03-31T21:52:00Z,00000200,01000000,0003.16,0001.66,0001.31,0000.97,0000.33,0000.50,0000.42,0000.48,0000.19,16.6,23.6,,00.0,0657.4,30.9
2021-03-31T21:53:00Z,00000200,01000000,0002.60,0002.05,0001.06,0000.92,0000.16,0000.10,0001.18,0000.92,0000.67,16.6,23.6,,00.0,0657.4,30.9
2021-03-31T21:54:00Z,00000200,01000000,0003.05,0001.83,0001.02,0000.50,0000.30,0000.20,0000.35,0000.63,0000.29,16.6,23.6,,00.0,0657.3,30.9
2021-03-31T21:55:00Z,00000200,01000000,0002.97,0002.34,0001.44,0001.45,0000.07,-000.08,0001.12,0000.82,0000.87,16.6,23.6,,00.0,0657.3,30.9
2021-03-31T21:56:00Z,00000200,01000000,0002.89,0001.74,0001.31,0000.83,0000.14,0000.23,0000.87,0000.68,0000.70,16.6,23.6,,00.0,0657.3,30.9
2021-03-31T21:57:00Z,00000200,41000000,,,,,,,0002.15,0002.27,0001.72,16.7,23.6,,00.0,0657.3,30.9
2021-03-31T21:58:00Z,00000200,61000000,,,,,,,-000.74,-000.68,-000.11,16.5,23.8,,00.0,0656.4,30.9
2021-03-31T21:59:00Z,00000200,21000000,,,,,,,-000.26,-000.33,-000.60,16.5,23.9,,00.0,0656.4,30.9
